Retour au catalogue

USA 24

ActifMilitaireLEO
NORAD 18010·PAYLOAD·🇺🇸 United States

Lancé May 15, 1987 depuis Vandenberg Space Force Base

Loading…

Prochains Passages (prochaines 24 heures)

TLE

FraisSource: Space-Track

Époque: Sep 14, 2026, 14:29 UTC

1 18010U 87043F   26257.60395804  .00008103  00000-0  48711-3 0  9995
2 18010  63.2954 108.3610 0778208 106.2804 262.5224 13.87955168357868

Suivez USA 24 en temps réel avec AllMySat

Download on the App Store